STARLINK-5809, 55775

Orbit data source: Space-Track

STARLINK-5809, 55775 is a payload satellite owned by SpaceX/Seattle (US) in LEO that was launched on Fri, 03 Mar 2023 UTC via an FALCON 9 launch vehicle from the Air Force Western Test Range (AFWTR). Payload-class satellites include a variety of spacecraft equipped with specific instruments for various scientific and technological missions. These include communications satellites like Starlink; space stations such as the ISS; scientific satellites like the Hubble; Earth observation satellites from companies like Planet Labs, Umbra, and HawkEye 360; GPS; miniature CubeSats for education and research; and military/defense satellites.

Loading next visibility...
Identifier
55775, 2023-028AL
Orbit
LEO
Country
Flag of USUS
Related business
Manufacturer
SpaceX/Seattle
Mission
Operational Commercial Communications
Bus & Motor
STARLINK, Unknown motor
Mass
305 kg wet, ~290 kg dry
Launch date (UTC)
2023-03-03 (3 years ago)
Launch vehicle
FALCON 9
Launch site
Air Force Western Test Range (AFWTR)
Object type
Payload
Rocket body
Debris
Shape & HBR
Box + 1 Pan, 10.1 m
Radar Cross Section
11.087 m², Large (>1 m²)

Expand to show TLE details & history
Last TLE update: 2 days ago

TLE from 2 days ago
0 STARLINK-5809
1 55775U 23028AL  26171.15839908  .00000766  00000-0  71993-4 0  9996
2 55775  69.9997 326.0258 0003642 268.1211  91.9531 14.98330123181880
Epoch: 2026-06-20T03:48Z
TLE epoch observation values (Epoch: 2026-06-20T03:48:05.680Z)
Latitude
-0.00002°
Longitude
0.62509°
Altitude
574.567 km
Speed
7.574 km/s
True Right ascension
21h 44m 06s
True Declination
0° 00' 00"
Sunlit
Object was in full shadow at epoch
Visualization orbit readout
Latitude
Unknown
Longitude
Unknown
Altitude
Unknown
Speed
Unknown
Apparent Right ascension
Unknown
Apparent Declination
Unknown
Sunlit
N/A
Visualization observer readout
Local Sidereal Time
21:28:51
Azimuth
Unknown
Elevation
Unknown
Doppler factor
Unknown
Orbital elements
Apogee altitude
572.534 km
Perigee altitude
567.473 km
Semi-major axis
6,948.141 km
Eccentricity
0.00036
Inclination
69.9997°
RAAN
326.0258°
Arg. of periapsis
268.1211°
True anomaly
91.99481°
Mean anomaly
91.9531°
Eccentric anomaly
91.97395°
Mean motion
3.74749 °/min
Orbital period
96.06 mins
BSTAR
0.000071993
Loading maneuver chart data...
Computing Atmospheric mass density...
Loading historical data...
Loading historical data...
Loading historical data...
Loading historical data...
Loading historical data...
Loading historical data...
Loading historical data...

Documentation

Showing up to 5 results
|